全球星 M028星 (GLOBALSTAR M028)

导读

GLOBALSTAR M028是全球星(GlobalStar)第一代低轨移动通信卫星星座的一员,1999年7月25日发射,归属美国全球星系统运营。该卫星采用劳拉公司LS-400平台,运行在约1414千米高度、倾角52°的近地轨道,属于全球语音、数据移动通信网络建设的组成部分,为全球提供兼容地面网络的漫游服务,填补地面蜂窝覆盖盲区的通信需求,设计寿命为7.5年,助力第一代全球星星座在1999年底完成48星组网。

基本信息
目录编号:
25875
目录名称:
GLOBALSTAR M028
国际标识:
1999-041D
轨道中心:
EARTH
卫星名称:
全球星 M028星
卫星全名:
全球星 M028星 (GLOBALSTAR M028)
卫星状态:
在轨 (已飞行9910 天)
发射日期:
1999-07-25 UTC
国别 :
(GLOB)
星等 :
--
轨道信息
数据来源 国际轨道数据 AOE轨道数据
星历时间 2026-09-10T14:45:49+0800
20小时前
查看轨道信息
2026-09-10T08:00:00+0800
1天前
查看轨道信息
半长轴 7840.107km 7840.108km
偏心率 0.0063099 0.0063026
轨道倾角 51.963° 51.963°
近地点辐角 329.150° 328.515°
升交点赤经 290.937° 291.777°
平近点角 30.566° 201.790°
近地点 1412.499km 1412.557km
远地点 1511.441km 1511.385km
周期 115.144分钟 115.144分钟
每日圈数 12.506039 12.506038
详细信息
固有亮度:
5
最大亮度:
7.9
平衡模式:
三轴稳定
覆盖范围:
全球
运营商:
全球星公司
运营商所在国:
美国
使用方式:
暂无
卫星简介
全球星星座由48颗卫星加8颗备份星组成。这些卫星分布在8个倾角为52度的圆形轨道平面上,每个轨道平面6颗卫星,另有1 颗备用星。轨道高度约为1414km,传输时延和处理时延小于300ms,整个系统的覆盖区为南北纬70度以内的地区。该卫星已退役。
2D轨道图
3D轨道图
轨道高度分析图
轨道倾角分析图
轨道综合分析图
查看轨道综合分析图
与全量物体交会距离演化趋势
与全量物体交会风险概率演化趋势